TimeEDT,TemperatureF,Dew PointF,Humidity,Sea Level PressureIn,VisibilityMPH,Wind Direction,Wind SpeedMPH,Gust SpeedMPH,PrecipitationIn,Events,Conditions,WindDirDegrees,DateUTC
12:51 AM,70.0,69.1,97,30.14,8.0,North,3.5,-,N/A,,Mostly Cloudy,10,2013-08-20 04:51:00
1:51 AM,70.0,69.1,97,30.12,8.0,NE,4.6,-,N/A,,Clear,50,2013-08-20 05:51:00
2:24 AM,69.8,69.8,100,30.13,8.0,ENE,3.5,-,N/A,,Mostly Cloudy,70,2013-08-20 06:24:00
2:51 AM,70.0,69.1,97,30.12,8.0,ENE,3.5,-,N/A,,Overcast,60,2013-08-20 06:51:00
3:51 AM,71.1,69.1,93,30.11,9.0,ENE,4.6,-,N/A,,Overcast,60,2013-08-20 07:51:00
4:51 AM,70.0,69.1,97,30.10,9.0,ENE,4.6,-,N/A,,Mostly Cloudy,70,2013-08-20 08:51:00
5:27 AM,69.8,69.8,100,30.11,9.0,NE,3.5,-,N/A,,Scattered Clouds,40,2013-08-20 09:27:00
5:36 AM,69.8,69.8,100,30.11,9.0,ENE,4.6,-,N/A,,Mostly Cloudy,60,2013-08-20 09:36:00
5:51 AM,70.0,69.1,97,30.10,8.0,NE,4.6,-,N/A,,Overcast,40,2013-08-20 09:51:00
6:51 AM,70.0,69.1,97,30.12,8.0,NE,3.5,-,N/A,,Overcast,50,2013-08-20 10:51:00
7:51 AM,70.0,69.1,97,30.13,6.0,East,4.6,-,N/A,,Overcast,80,2013-08-20 11:51:00
8:51 AM,71.1,70.0,96,30.14,7.0,ENE,5.8,-,N/A,,Overcast,70,2013-08-20 12:51:00
9:51 AM,72.0,71.1,97,30.16,6.0,East,4.6,-,N/A,,Overcast,80,2013-08-20 13:51:00
10:43 AM,73.4,71.6,94,30.19,8.0,East,6.9,-,N/A,,Overcast,90,2013-08-20 14:43:00
10:51 AM,75.0,71.1,87,30.17,8.0,East,5.8,-,N/A,,Overcast,90,2013-08-20 14:51:00
11:22 AM,75.2,71.6,89,30.20,10.0,East,4.6,-,N/A,,Overcast,90,2013-08-20 15:22:00
11:51 AM,77.0,71.1,82,30.19,10.0,ENE,4.6,-,N/A,,Overcast,70,2013-08-20 15:51:00
12:43 PM,78.8,71.6,78,30.21,10.0,ENE,6.9,-,N/A,,Mostly Cloudy,70,2013-08-20 16:43:00
12:51 PM,78.1,71.1,79,30.19,10.0,East,5.8,-,N/A,,Mostly Cloudy,80,2013-08-20 16:51:00
1:49 PM,77.0,71.6,83,30.20,10.0,ESE,5.8,-,N/A,,Overcast,110,2013-08-20 17:49:00
1:51 PM,77.0,71.1,82,30.18,10.0,East,6.9,-,N/A,,Overcast,100,2013-08-20 17:51:00
1:59 PM,78.8,71.6,78,30.20,9.0,East,6.9,-,N/A,,Overcast,80,2013-08-20 17:59:00
2:51 PM,79.0,71.1,77,30.16,10.0,ENE,8.1,-,N/A,,Overcast,70,2013-08-20 18:51:00
3:20 PM,78.8,71.6,78,30.16,10.0,East,5.8,-,N/A,,Overcast,80,2013-08-20 19:20:00
3:27 PM,80.6,71.6,74,30.16,10.0,ENE,5.8,-,N/A,,Overcast,60,2013-08-20 19:27:00
3:51 PM,80.1,72.0,76,30.13,10.0,East,8.1,-,N/A,,Overcast,80,2013-08-20 19:51:00
4:51 PM,80.1,71.1,74,30.12,10.0,East,5.8,-,N/A,,Scattered Clouds,100,2013-08-20 20:51:00
5:51 PM,80.1,71.1,74,30.12,10.0,East,5.8,-,N/A,,Clear,90,2013-08-20 21:51:00
6:51 PM,80.1,72.0,76,30.12,10.0,East,5.8,-,N/A,,Clear,80,2013-08-20 22:51:00
7:51 PM,78.1,72.0,81,30.13,10.0,ENE,3.5,-,N/A,,Clear,70,2013-08-20 23:51:00
8:51 PM,75.0,72.0,90,30.14,10.0,East,3.5,-,N/A,,Clear,90,2013-08-21 00:51:00
9:51 PM,73.9,72.0,93,30.16,10.0,ENE,4.6,-,N/A,,Overcast,70,2013-08-21 01:51:00
10:51 PM,73.9,72.0,93,30.18,9.0,Calm,Calm,-,N/A,,Mostly Cloudy,0,2013-08-21 02:51:00
11:51 PM,73.9,72.0,93,30.18,10.0,Calm,Calm,-,N/A,,Mostly Cloudy,0,2013-08-21 03:51:00